Location: ????????
(60.5616°N, 46.8254°E)
Time: 21:38:43
(UTC+00:00)

Cosmos 1943 Rocket - Pass Details

Date: 18 February 2020
Orbit: 814 x 842 km, 71.0° (Epoch: 29 March)

Event Time Altitude Azimuth Distance (km) Brightness Sun altitude
Rises 15:41:54 0° 173° (S) 3,363 5.2 -14.5°
Reaches altitude 10° 15:44:41 10° 161° (SSE) 2,429 4.4 -14.8°
Maximum altitude 15:49:11 26° 107° (ESE) 1,579 3.0 -15.4°
Enters shadow 15:50:23 24° 86° (E) 1,655 3.1 -15.5°
